QPF
0.00 0.00 0.00 0.01 0.02 0.02 0.03 0.02 0.01 0.01 0.00 0.01 0.01 0.01 0.01 0.01 0.00 0.01 0.01 0.01 0.01 0.03 0.04 0.05 0.07 0.08 0.09 0.09 0.09 0.10 0.12 0.08 0.06 0.04 0.04 0.03 0.02 0.02 0.02 0.02 0.02 0.01 0.01
0.00 0.00 0.00 0.01 0.01 0.02 0.02 0.02 0.02 0.01 0.01 0.00 0.01 0.01 0.01 0.01 0.01 0.01 0.01 0.01 0.01 0.02 0.03 0.04 0.05 0.07 0.08 0.10 0.11 0.11 0.11 0.12 0.09 0.07 0.06 0.04 0.02 0.02 0.03 0.02 0.02 0.01 0.01
0.01 0.00 0.00 0.00 0.01 0.02 0.02 0.02 0.02 0.02 0.01 0.01 0.00 0.01 0.01 0.01 0.01 0.01 0.01 0.01 0.01 0.01 0.02 0.03 0.04 0.06 0.08 0.08 0.11 0.12 0.13 0.14 0.11 0.08 0.07 0.05 0.03 0.02 0.02 0.01 0.01 0.01 0.02
0.02 0.01 0.01 0.00 0.00 0.01 0.02 0.02 0.02 0.02 0.01 0.01 0.00 0.00 0.01 0.01 0.01 0.01 0.01 0.01 0.01 0.01 0.02 0.03 0.03 0.04 0.07 0.09 0.11 0.12 0.14 0.15 0.15 0.10 0.07 0.06 0.04 0.02 0.02 0.02 0.02 0.02 0.02
0.02 0.02 0.01 0.01 0.01 0.01 0.01 0.02 0.02 0.02 0.02 0.01 0.01 0.00 0.01 0.01 0.01 0.01 0.01 0.01 0.01 0.01 0.01 0.02 0.02 0.03 0.05 0.08 0.09 0.11 0.16 0.16 0.17 0.13 0.07 0.06 0.04 0.03 0.03 0.03 0.03 0.02 0.02
0.02 0.02 0.02 0.02 0.01 0.01 0.01 0.02 0.02 0.02 0.02 0.02 0.01 0.01 0.00 0.00 0.01 0.01 0.01 0.01 0.01 0.01 0.01 0.01 0.01 0.01 0.03 0.06 0.08 0.09 0.15 0.19 0.19 0.16 0.09 0.06 0.05 0.05 0.04 0.04 0.04 0.04 0.03
0.02 0.02 0.03 0.03 0.02 0.03 0.02 0.02 0.02 0.03 0.03 0.02 0.02 0.01 0.01 0.01 0.01 0.01 0.01 0.01 0.01 0.01 0.01 0.01 0.01 0.01 0.02 0.03 0.05 0.08 0.13 0.18 0.20 0.19 0.11 0.06 0.04 0.04 0.04 0.03 0.03 0.04 0.04
0.02 0.02 0.02 0.02 0.03 0.04 0.04 0.03 0.03 0.03 0.04 0.03 0.02 0.01 0.01 0.01 0.01 0.02 0.02 0.01 0.01 0.02 0.02 0.01 0.01 0.02 0.02 0.02 0.03 0.04 0.07 0.13 0.19 0.20 0.14 0.08 0.05 0.03 0.03 0.04 0.05 0.05 0.04
0.03 0.03 0.02 0.03 0.03 0.03 0.04 0.05 0.04 0.04 0.05 0.05 0.04 0.03 0.02 0.01 0.01 0.02 0.03 0.02 0.02 0.03 0.04 0.03 0.02 0.02 0.02 0.02 0.03 0.04 0.05 0.07 0.15 0.20 0.17 0.11 0.08 0.05 0.04 0.04 0.04 0.05 0.05
0.03 0.04 0.02 0.02 0.03 0.03 0.04 0.05 0.06 0.05 0.05 0.06 0.06 0.04 0.03 0.02 0.01 0.01 0.02 0.02 0.02 0.03 0.03 0.03 0.03 0.03 0.03 0.03 0.04 0.04 0.04 0.05 0.10 0.21 0.21 0.16 0.13 0.07 0.06 0.05 0.05 0.05 0.06
0.03 0.02 0.02 0.02 0.03 0.03 0.04 0.04 0.05 0.06 0.05 0.04 0.05 0.05 0.04 0.03 0.02 0.02 0.02 0.02 0.02 0.02 0.02 0.02 0.03 0.03 0.04 0.04 0.04 0.05 0.05 0.04 0.06 0.15 0.22 0.21 0.18 0.14 0.09 0.07 0.05 0.04 0.04
0.03 0.02 0.02 0.03 0.03 0.04 0.05 0.04 0.04 0.06 0.06 0.06 0.05 0.04 0.04 0.05 0.04 0.03 0.03 0.02 0.02 0.01 0.02 0.02 0.02 0.03 0.04 0.04 0.04 0.06 0.07 0.05 0.05 0.09 0.16 0.18 0.17 0.14 0.12 0.09 0.06 0.05 0.04
0.02 0.02 0.02 0.01 0.02 0.03 0.05 0.06 0.06 0.05 0.06 0.06 0.05 0.05 0.04 0.04 0.05 0.04 0.04 0.04 0.03 0.02 0.01 0.01 0.01 0.02 0.03 0.04 0.05 0.06 0.05 0.05 0.05 0.07 0.11 0.13 0.13 0.13 0.11 0.10 0.07 0.05 0.05
0.02 0.02 0.01 0.01 0.02 0.02 0.03 0.05 0.07 0.07 0.07 0.07 0.06 0.05 0.05 0.05 0.05 0.05 0.05 0.06 0.06 0.05 0.02 0.01 0.01 0.02 0.03 0.04 0.04 0.04 0.03 0.04 0.04 0.06 0.09 0.11 0.10 0.10 0.11 0.09 0.07 0.06 0.05
0.06 0.05 0.03 0.02 0.02 0.02 0.02 0.03 0.04 0.05 0.07 0.08 0.08 0.08 0.07 0.06 0.05 0.05 0.04 0.04 0.06 0.07 0.05 0.02 0.02 0.03 0.04 0.05 0.05 0.04 0.03 0.03 0.04 0.05 0.07 0.10 0.09 0.07 0.08 0.09 0.08 0.06 0.06
0.06 0.07 0.07 0.06 0.05 0.04 0.03 0.03 0.03 0.03 0.04 0.05 0.07 0.08 0.09 0.09 0.08 0.08 0.07 0.06 0.06 0.06 0.05 0.03 0.03 0.03 0.03 0.04 0.04 0.03 0.03 0.03 0.04 0.05 0.06 0.08 0.09 0.07 0.06 0.07 0.07 0.07 0.06
0.04 0.04 0.06 0.06 0.06 0.05 0.04 0.03 0.03 0.03 0.03 0.03 0.04 0.05 0.06 0.07 0.08 0.10 0.11 0.10 0.09 0.07 0.06 0.04 0.03 0.03 0.03 0.04 0.04 0.03 0.02 0.03 0.04 0.05 0.05 0.06 0.08 0.09 0.07 0.06 0.06 0.07 0.08
0.04 0.04 0.03 0.04 0.05 0.05 0.05 0.04 0.04 0.03 0.03 0.03 0.03 0.03 0.03 0.04 0.05 0.06 0.07 0.09 0.10 0.10 0.09 0.06 0.05 0.04 0.04 0.05 0.05 0.05 0.04 0.04 0.05 0.07 0.05 0.04 0.04 0.06 0.08 0.07 0.06 0.05 0.06
0.02 0.03 0.03 0.03 0.04 0.05 0.05 0.04 0.03 0.03 0.03 0.02 0.02 0.03 0.03 0.03 0.03 0.04 0.04 0.04 0.05 0.07 0.08 0.08 0.07 0.05 0.05 0.05 0.06 0.07 0.06 0.06 0.07 0.08 0.06 0.04 0.04 0.04 0.06 0.07 0.07 0.06 0.06
0.01 0.01 0.02 0.03 0.03 0.04 0.06 0.06 0.04 0.03 0.03 0.03 0.02 0.02 0.02 0.03 0.03 0.03 0.04 0.04 0.04 0.05 0.07 0.08 0.09 0.08 0.06 0.05 0.07 0.09 0.09 0.08 0.09 0.08 0.07 0.06 0.04 0.05 0.06 0.07 0.06 0.06 0.06
0.01 0.01 0.01 0.01 0.02 0.03 0.04 0.06 0.07 0.06 0.04 0.03 0.03 0.03 0.03 0.02 0.03 0.03 0.04 0.04 0.05 0.06 0.07 0.08 0.08 0.09 0.07 0.06 0.07 0.09 0.10 0.10 0.11 0.09 0.07 0.06 0.05 0.04 0.05 0.06 0.07 0.06 0.06
0.02 0.02 0.01 0.01 0.01 0.02 0.02 0.04 0.06 0.07 0.06 0.04 0.03 0.02 0.03 0.03 0.03 0.03 0.03 0.04 0.05 0.05 0.06 0.06 0.07 0.07 0.06 0.06 0.07 0.09 0.11 0.13 0.13 0.09 0.05 0.06 0.06 0.05 0.04 0.05 0.07 0.07 0.07
0.02 0.02 0.02 0.02 0.02 0.02 0.03 0.03 0.04 0.04 0.05 0.06 0.05 0.03 0.02 0.02 0.03 0.03 0.03 0.03 0.04 0.04 0.04 0.04 0.05 0.05 0.05 0.05 0.08 0.11 0.11 0.12 0.10 0.07 0.05 0.06 0.06 0.06 0.05 0.04 0.05 0.07 0.08
0.02 0.02 0.02 0.02 0.02 0.02 0.03 0.04 0.03 0.04 0.04 0.04 0.04 0.05 0.04 0.04 0.03 0.03 0.03 0.03 0.03 0.03 0.03 0.03 0.03 0.04 0.04 0.05 0.08 0.12 0.12 0.11 0.09 0.07 0.05 0.05 0.05 0.05 0.05 0.04 0.04 0.05 0.07
0.01 0.02 0.02 0.02 0.02 0.02 0.03 0.03 0.04 0.03 0.03 0.03 0.03 0.03 0.04 0.04 0.04 0.04 0.04 0.04 0.04 0.03 0.03 0.04 0.04 0.04 0.05 0.07 0.08 0.10 0.11 0.10 0.09 0.06 0.04 0.04 0.04 0.04 0.05 0.04 0.04 0.05 0.06
0.01 0.02 0.02 0.02 0.02 0.03 0.03 0.03 0.03 0.03 0.03 0.03 0.03 0.03 0.03 0.03 0.04 0.04 0.04 0.03 0.03 0.03 0.03 0.04 0.04 0.05 0.05 0.06 0.07 0.07 0.07 0.08 0.08 0.07 0.04 0.03 0.04 0.04 0.05 0.05 0.04 0.04 0.04
MSLP
1022.20 1022.06 1021.92 1021.78 1021.63 1021.47 1021.30 1021.10 1020.88 1020.65 1020.41 1020.20 1020.04 1019.94 1019.90 1019.91 1019.97 1020.04 1020.09 1020.10 1020.06 1019.97 1019.84 1019.69 1019.56 1019.45 1019.40 1019.39 1019.42 1019.47 1019.52 1019.55 1019.55 1019.51 1019.45 1019.38 1019.30 1019.24 1019.20 1019.19 1019.20 1019.22 1019.24
1022.51 1022.32 1022.12 1021.94 1021.76 1021.60 1021.43 1021.25 1021.06 1020.85 1020.64 1020.45 1020.30 1020.21 1020.19 1020.24 1020.32 1020.41 1020.48 1020.51 1020.47 1020.36 1020.20 1020.01 1019.82 1019.67 1019.58 1019.55 1019.57 1019.63 1019.71 1019.77 1019.81 1019.81 1019.79 1019.73 1019.67 1019.61 1019.57 1019.55 1019.55 1019.57 1019.60
1022.84 1022.60 1022.36 1022.13 1021.92 1021.74 1021.57 1021.41 1021.23 1021.04 1020.86 1020.69 1020.57 1020.50 1020.51 1020.58 1020.70 1020.83 1020.93 1020.97 1020.93 1020.80 1020.61 1020.38 1020.15 1019.95 1019.81 1019.74 1019.75 1019.81 1019.90 1020.00 1020.07 1020.11 1020.11 1020.08 1020.04 1019.99 1019.95 1019.92 1019.91 1019.92 1019.95
1023.15 1022.88 1022.60 1022.33 1022.10 1021.90 1021.72 1021.56 1021.39 1021.22 1021.06 1020.91 1020.82 1020.78 1020.82 1020.93 1021.08 1021.24 1021.37 1021.44 1021.41 1021.29 1021.08 1020.82 1020.55 1020.31 1020.13 1020.03 1020.01 1020.06 1020.16 1020.26 1020.36 1020.42 1020.45 1020.45 1020.41 1020.37 1020.33 1020.29 1020.28 1020.27 1020.28
1023.42 1023.13 1022.82 1022.53 1022.28 1022.06 1021.88 1021.71 1021.54 1021.38 1021.23 1021.10 1021.03 1021.02 1021.09 1021.23 1021.42 1021.61 1021.78 1021.88 1021.87 1021.77 1021.57 1021.31 1021.02 1020.76 1020.56 1020.43 1020.39 1020.42 1020.50 1020.61 1020.71 1020.78 1020.82 1020.82 1020.79 1020.75 1020.70 1020.66 1020.63 1020.61 1020.60
1023.60 1023.32 1023.01 1022.72 1022.46 1022.23 1022.04 1021.86 1021.69 1021.53 1021.38 1021.26 1021.19 1021.19 1021.28 1021.44 1021.65 1021.88 1022.09 1022.22 1022.26 1022.20 1022.04 1021.81 1021.55 1021.30 1021.09 1020.96 1020.90 1020.91 1020.96 1021.04 1021.12 1021.18 1021.21 1021.20 1021.17 1021.12 1021.07 1021.01 1020.96 1020.92 1020.89
1023.71 1023.44 1023.16 1022.88 1022.63 1022.40 1022.20 1022.02 1021.84 1021.66 1021.50 1021.37 1021.30 1021.30 1021.38 1021.55 1021.77 1022.02 1022.26 1022.44 1022.53 1022.53 1022.44 1022.28 1022.08 1021.88 1021.70 1021.58 1021.52 1021.50 1021.53 1021.57 1021.61 1021.63 1021.62 1021.59 1021.54 1021.48 1021.41 1021.34 1021.28 1021.22 1021.16
1023.74 1023.51 1023.26 1023.02 1022.79 1022.58 1022.38 1022.19 1022.00 1021.80 1021.61 1021.46 1021.36 1021.34 1021.40 1021.55 1021.77 1022.02 1022.28 1022.51 1022.67 1022.75 1022.75 1022.69 1022.58 1022.46 1022.35 1022.26 1022.20 1022.18 1022.17 1022.16 1022.15 1022.11 1022.06 1021.99 1021.90 1021.82 1021.73 1021.66 1021.58 1021.51 1021.44
1023.71 1023.53 1023.34 1023.14 1022.95 1022.77 1022.58 1022.38 1022.17 1021.95 1021.74 1021.55 1021.41 1021.35 1021.37 1021.48 1021.67 1021.92 1022.19 1022.45 1022.68 1022.84 1022.95 1023.01 1023.02 1023.00 1022.97 1022.94 1022.92 1022.88 1022.84 1022.79 1022.71 1022.61 1022.50 1022.38 1022.27 1022.15 1022.06 1021.97 1021.89 1021.82 1021.74
1023.66 1023.53 1023.39 1023.25 1023.11 1022.96 1022.78 1022.59 1022.36 1022.12 1021.88 1021.65 1021.47 1021.36 1021.33 1021.40 1021.55 1021.77 1022.04 1022.32 1022.59 1022.84 1023.05 1023.23 1023.36 1023.46 1023.53 1023.58 1023.59 1023.56 1023.51 1023.41 1023.28 1023.12 1022.95 1022.79 1022.63 1022.50 1022.39 1022.30 1022.22 1022.15 1022.07
1023.60 1023.51 1023.43 1023.35 1023.25 1023.13 1022.98 1022.79 1022.57 1022.31 1022.04 1021.79 1021.57 1021.42 1021.34 1021.35 1021.45 1021.64 1021.88 1022.16 1022.47 1022.77 1023.07 1023.35 1023.60 1023.82 1023.99 1024.11 1024.18 1024.17 1024.11 1023.99 1023.81 1023.61 1023.40 1023.19 1023.01 1022.86 1022.74 1022.65 1022.57 1022.49 1022.41
1023.55 1023.49 1023.46 1023.42 1023.36 1023.28 1023.15 1022.98 1022.76 1022.50 1022.23 1021.96 1021.72 1021.54 1021.42 1021.38 1021.43 1021.57 1021.77 1022.04 1022.35 1022.69 1023.04 1023.40 1023.75 1024.06 1024.32 1024.52 1024.64 1024.67 1024.62 1024.48 1024.29 1024.06 1023.82 1023.59 1023.39 1023.23 1023.10 1023.00 1022.92 1022.84 1022.74
1023.51 1023.47 1023.46 1023.45 1023.43 1023.37 1023.27 1023.12 1022.91 1022.68 1022.42 1022.16 1021.92 1021.72 1021.58 1021.51 1021.51 1021.59 1021.75 1021.97 1022.26 1022.60 1022.98 1023.39 1023.79 1024.17 1024.51 1024.77 1024.95 1025.02 1024.99 1024.87 1024.68 1024.44 1024.19 1023.95 1023.74 1023.57 1023.43 1023.33 1023.24 1023.14 1023.03
1023.48 1023.44 1023.43 1023.44 1023.43 1023.39 1023.31 1023.19 1023.02 1022.81 1022.59 1022.36 1022.15 1021.96 1021.81 1021.72 1021.68 1021.71 1021.80 1021.97 1022.22 1022.53 1022.90 1023.31 1023.74 1024.16 1024.55 1024.86 1025.09 1025.20 1025.21 1025.12 1024.94 1024.72 1024.48 1024.24 1024.02 1023.84 1023.70 1023.59 1023.48 1023.37 1023.23
1023.44 1023.38 1023.37 1023.37 1023.37 1023.34 1023.28 1023.18 1023.05 1022.89 1022.72 1022.55 1022.37 1022.21 1022.08 1021.97 1021.90 1021.88 1021.92 1022.03 1022.21 1022.46 1022.79 1023.18 1023.61 1024.05 1024.46 1024.80 1025.07 1025.22 1025.27 1025.21 1025.07 1024.86 1024.63 1024.40 1024.19 1024.01 1023.86 1023.73 1023.61 1023.48 1023.33
1023.40 1023.31 1023.27 1023.25 1023.24 1023.21 1023.17 1023.10 1023.01 1022.91 1022.80 1022.68 1022.57 1022.45 1022.34 1022.23 1022.14 1022.08 1022.06 1022.10 1022.21 1022.40 1022.68 1023.03 1023.42 1023.85 1024.26 1024.62 1024.90 1025.09 1025.17 1025.14 1025.03 1024.85 1024.64 1024.42 1024.21 1024.03 1023.87 1023.73 1023.60 1023.46 1023.30
1023.36 1023.22 1023.14 1023.09 1023.06 1023.03 1022.99 1022.95 1022.91 1022.87 1022.82 1022.76 1022.71 1022.64 1022.55 1022.46 1022.36 1022.27 1022.20 1022.18 1022.23 1022.35 1022.56 1022.86 1023.21 1023.60 1024.00 1024.35 1024.64 1024.84 1024.94 1024.93 1024.84 1024.68 1024.48 1024.27 1024.07 1023.89 1023.72 1023.58 1023.45 1023.31 1023.16
1023.31 1023.12 1022.99 1022.90 1022.84 1022.80 1022.77 1022.75 1022.75 1022.76 1022.77 1022.78 1022.77 1022.75 1022.70 1022.62 1022.52 1022.41 1022.31 1022.24 1022.24 1022.31 1022.47 1022.71 1023.02 1023.37 1023.73 1024.06 1024.34 1024.53 1024.63 1024.63 1024.54 1024.39 1024.20 1023.99 1023.79 1023.61 1023.44 1023.31 1023.18 1023.06 1022.92
1023.24 1023.00 1022.81 1022.68 1022.59 1022.53 1022.51 1022.51 1022.54 1022.60 1022.66 1022.72 1022.76 1022.78 1022.77 1022.71 1022.61 1022.50 1022.39 1022.30 1022.27 1022.30 1022.42 1022.62 1022.88 1023.19 1023.51 1023.81 1024.06 1024.22 1024.30 1024.29 1024.19 1024.04 1023.84 1023.63 1023.42 1023.24 1023.08 1022.95 1022.84 1022.74 1022.64
1023.15 1022.85 1022.62 1022.44 1022.32 1022.25 1022.22 1022.24 1022.30 1022.38 1022.49 1022.60 1022.68 1022.74 1022.76 1022.72 1022.65 1022.55 1022.45 1022.36 1022.32 1022.35 1022.44 1022.61 1022.84 1023.11 1023.39 1023.64 1023.84 1023.97 1024.01 1023.97 1023.86 1023.68 1023.47 1023.25 1023.04 1022.85 1022.70 1022.58 1022.49 1022.41 1022.35
1023.02 1022.68 1022.40 1022.18 1022.02 1021.93 1021.90 1021.93 1022.01 1022.13 1022.27 1022.41 1022.53 1022.63 1022.68 1022.68 1022.64 1022.57 1022.49 1022.43 1022.41 1022.45 1022.54 1022.70 1022.91 1023.14 1023.37 1023.58 1023.73 1023.81 1023.81 1023.73 1023.59 1023.39 1023.16 1022.94 1022.72 1022.53 1022.37 1022.25 1022.17 1022.11 1022.06
1022.84 1022.46 1022.13 1021.88 1021.70 1021.59 1021.56 1021.59 1021.68 1021.82 1021.99 1022.16 1022.32 1022.45 1022.53 1022.58 1022.58 1022.56 1022.53 1022.51 1022.53 1022.59 1022.70 1022.86 1023.05 1023.26 1023.45 1023.61 1023.72 1023.75 1023.71 1023.60 1023.42 1023.21 1022.97 1022.73 1022.51 1022.31 1022.15 1022.02 1021.93 1021.86 1021.81
1022.61 1022.19 1021.84 1021.55 1021.34 1021.21 1021.17 1021.20 1021.31 1021.46 1021.65 1021.85 1022.04 1022.21 1022.34 1022.43 1022.48 1022.52 1022.54 1022.58 1022.65 1022.75 1022.89 1023.05 1023.24 1023.43 1023.59 1023.71 1023.77 1023.77 1023.70 1023.56 1023.38 1023.16 1022.92 1022.68 1022.45 1022.24 1022.06 1021.91 1021.78 1021.68 1021.58
1022.32 1021.88 1021.49 1021.18 1020.95 1020.80 1020.75 1020.78 1020.88 1021.05 1021.26 1021.48 1021.71 1021.91 1022.08 1022.22 1022.34 1022.43 1022.52 1022.61 1022.73 1022.87 1023.04 1023.22 1023.41 1023.58 1023.72 1023.81 1023.85 1023.83 1023.74 1023.61 1023.43 1023.21 1022.99 1022.76 1022.53 1022.31 1022.10 1021.91 1021.72 1021.55 1021.37
1021.97 1021.52 1021.12 1020.79 1020.53 1020.36 1020.29 1020.32 1020.42 1020.60 1020.82 1021.07 1021.32 1021.56 1021.78 1021.97 1022.14 1022.29 1022.43 1022.58 1022.75 1022.92 1023.11 1023.31 1023.49 1023.66 1023.79 1023.87 1023.90 1023.88 1023.80 1023.68 1023.52 1023.34 1023.14 1022.93 1022.70 1022.47 1022.23 1021.98 1021.72 1021.46 1021.18
1021.58 1021.12 1020.71 1020.36 1020.09 1019.90 1019.82 1019.83 1019.93 1020.11 1020.35 1020.61 1020.90 1021.17 1021.43 1021.67 1021.89 1022.09 1022.28 1022.48 1022.67 1022.88 1023.08 1023.29 1023.48 1023.64 1023.76 1023.84 1023.88 1023.87 1023.82 1023.74 1023.62 1023.48 1023.32 1023.13 1022.92 1022.67 1022.40 1022.09 1021.75 1021.39 1021.00
Thickness
5577 5577 5578 5580 5583 5585 5588 5591 5594 5597 5599 5601 5604 5607 5609 5612 5615 5618 5620 5622 5624 5627 5630 5632 5634 5636 5637 5639 5640 5641 5642 5642 5643 5643 5643 5642 5642 5642 5642 5642 5642 5642 5642
5566 5567 5568 5570 5572 5575 5577 5580 5583 5586 5589 5592 5594 5597 5600 5603 5606 5609 5612 5614 5616 5619 5622 5625 5627 5629 5631 5633 5634 5635 5636 5636 5637 5637 5637 5637 5637 5636 5636 5636 5636 5636 5636
5555 5556 5558 5560 5562 5564 5567 5570 5573 5576 5578 5582 5585 5588 5591 5594 5597 5600 5602 5605 5608 5611 5614 5616 5619 5622 5624 5626 5628 5629 5630 5630 5631 5631 5631 5631 5631 5631 5630 5631 5631 5631 5631
5543 5545 5548 5549 5550 5553 5556 5559 5563 5566 5569 5572 5574 5577 5580 5584 5587 5590 5593 5596 5599 5601 5605 5607 5610 5613 5616 5619 5621 5622 5623 5624 5625 5625 5625 5625 5625 5625 5625 5625 5625 5625 5626
5531 5534 5536 5537 5539 5542 5545 5549 5552 5555 5558 5561 5564 5567 5570 5574 5577 5580 5584 5586 5589 5592 5595 5598 5601 5604 5607 5610 5613 5615 5616 5618 5619 5619 5619 5619 5619 5619 5619 5619 5620 5620 5620
5519 5521 5524 5526 5528 5531 5534 5537 5540 5543 5547 5550 5553 5556 5559 5563 5566 5570 5573 5576 5579 5582 5585 5589 5592 5595 5598 5601 5604 5606 5609 5610 5611 5611 5612 5612 5612 5613 5613 5613 5613 5613 5613
5507 5510 5512 5514 5516 5519 5522 5525 5529 5532 5535 5539 5543 5547 5550 5553 5556 5559 5562 5565 5568 5571 5574 5578 5582 5585 5589 5591 5594 5597 5599 5601 5603 5604 5605 5605 5605 5606 5607 5607 5607 5607 5607
5495 5497 5500 5503 5505 5507 5510 5513 5517 5521 5524 5527 5532 5537 5542 5545 5547 5548 5551 5554 5557 5560 5564 5567 5571 5574 5578 5581 5585 5587 5589 5592 5594 5596 5597 5598 5599 5599 5600 5601 5600 5600 5600
5483 5485 5488 5490 5493 5495 5498 5501 5505 5508 5512 5514 5518 5524 5531 5538 5537 5538 5540 5543 5546 5549 5553 5556 5559 5563 5567 5570 5574 5577 5579 5582 5585 5587 5589 5590 5592 5592 5593 5593 5593 5593 5593
5471 5473 5475 5478 5480 5483 5486 5489 5492 5496 5499 5502 5505 5509 5514 5520 5524 5528 5530 5532 5534 5537 5541 5545 5548 5552 5556 5560 5563 5566 5570 5572 5575 5578 5580 5582 5584 5585 5586 5586 5586 5586 5585
5460 5461 5462 5465 5468 5471 5473 5476 5480 5483 5487 5490 5493 5497 5501 5505 5511 5516 5521 5522 5523 5526 5529 5533 5537 5542 5545 5549 5552 5556 5559 5562 5565 5568 5571 5573 5575 5576 5577 5577 5577 5577 5577
5448 5449 5450 5453 5456 5458 5461 5464 5467 5470 5474 5478 5481 5484 5489 5493 5499 5503 5508 5511 5513 5516 5518 5522 5526 5531 5535 5538 5541 5545 5548 5551 5554 5558 5560 5563 5565 5567 5568 5568 5568 5569 5569
5438 5438 5439 5441 5444 5446 5449 5452 5455 5458 5462 5465 5469 5472 5476 5480 5484 5488 5492 5496 5501 5504 5508 5511 5515 5519 5523 5526 5529 5533 5536 5540 5543 5546 5549 5552 5554 5556 5557 5558 5559 5559 5559
5426 5427 5428 5429 5432 5434 5437 5439 5443 5446 5450 5453 5457 5460 5464 5467 5470 5474 5478 5482 5487 5493 5498 5502 5503 5506 5510 5513 5517 5520 5525 5528 5531 5535 5538 5540 5543 5545 5546 5547 5548 5549 5549
5414 5415 5416 5418 5420 5423 5425 5428 5432 5435 5438 5441 5444 5447 5451 5454 5457 5460 5464 5468 5473 5480 5488 5491 5492 5494 5497 5500 5503 5507 5512 5516 5520 5522 5526 5529 5532 5534 5534 5536 5537 5538 5539
5401 5403 5404 5406 5408 5411 5414 5417 5420 5423 5426 5429 5431 5434 5438 5441 5444 5447 5450 5454 5459 5465 5473 5478 5479 5482 5484 5488 5492 5495 5500 5504 5508 5511 5515 5518 5520 5522 5523 5525 5526 5528 5528
5389 5391 5393 5395 5397 5400 5402 5405 5408 5411 5414 5417 5420 5422 5425 5427 5431 5434 5437 5441 5445 5450 5456 5462 5464 5467 5471 5475 5479 5483 5487 5492 5496 5500 5503 5506 5509 5511 5512 5514 5515 5517 5518
5377 5379 5381 5383 5385 5388 5391 5394 5397 5399 5402 5405 5408 5411 5413 5415 5418 5422 5425 5429 5432 5436 5441 5446 5449 5453 5457 5462 5466 5470 5475 5480 5485 5489 5492 5495 5498 5499 5502 5504 5505 5506 5507
5365 5366 5368 5371 5373 5375 5378 5381 5384 5387 5390 5394 5396 5399 5401 5403 5406 5409 5412 5416 5419 5423 5427 5432 5436 5439 5444 5448 5452 5457 5462 5467 5472 5477 5480 5484 5486 5488 5490 5492 5494 5496 5497
5352 5354 5356 5359 5361 5364 5366 5369 5372 5375 5378 5381 5383 5386 5388 5390 5394 5396 5399 5403 5406 5410 5414 5419 5423 5426 5430 5434 5439 5444 5450 5455 5460 5465 5469 5472 5474 5476 5479 5481 5484 5485 5486
5339 5341 5344 5347 5349 5352 5355 5357 5360 5363 5366 5368 5370 5372 5375 5377 5380 5383 5387 5390 5393 5397 5401 5406 5411 5415 5418 5421 5426 5432 5437 5442 5447 5452 5456 5460 5463 5466 5467 5469 5471 5473 5475
5326 5328 5331 5334 5337 5340 5343 5345 5347 5350 5353 5355 5357 5360 5362 5364 5367 5370 5373 5377 5380 5385 5389 5394 5399 5404 5408 5411 5414 5418 5423 5429 5436 5440 5443 5447 5449 5453 5456 5458 5461 5462 5464
5313 5316 5319 5322 5325 5328 5330 5333 5335 5338 5340 5342 5344 5347 5350 5353 5355 5358 5361 5364 5367 5371 5376 5381 5387 5392 5396 5400 5402 5406 5411 5416 5423 5427 5429 5434 5437 5441 5443 5446 5448 5450 5452
5301 5304 5307 5309 5312 5316 5317 5320 5322 5324 5328 5330 5333 5335 5338 5341 5343 5346 5348 5352 5356 5360 5365 5369 5375 5380 5382 5385 5389 5393 5397 5401 5406 5410 5414 5419 5424 5427 5430 5433 5435 5437 5440
5288 5291 5294 5297 5300 5303 5304 5307 5309 5312 5316 5319 5321 5323 5326 5329 5332 5333 5336 5341 5345 5349 5351 5356 5361 5365 5369 5372 5375 5379 5383 5387 5393 5398 5400 5405 5410 5412 5416 5420 5423 5424 5426
5275 5278 5281 5284 5287 5290 5292 5294 5296 5301 5305 5308 5310 5313 5315 5317 5319 5320 5323 5328 5333 5338 5341 5345 5349 5353 5357 5361 5364 5368 5372 5376 5381 5385 5388 5391 5395 5396 5401 5407 5409 5411 5413